Salem, OR

2:28 AM PDT on August 28, 2016 (GMT -0700)
McNary

Weather History for KSLE - March, 2014

Change the Weather History Date:

Friday, March 7, 2014

  Actual Average Record
Temperature  
Mean Temperature 53 °F 46 °F  
Max Temperature 63 °F 55 °F 71 °F (2001)
Min Temperature 43 °F 36 °F 23 °F (1974)
Degree Days  
Heating Degree Days 12 19  
Month to date heating degree days 93 139  
Since 1 July heating degree days 3379 3379  
Cooling Degree Days 0 0  
Month to date cooling degree days 0 0  
Year to date cooling degree days 0 0  
Growing Degree Days 4 (Base 50)    
Moisture  
Dew Point 44 °F    
Average Humidity 71    
Maximum Humidity 93    
Minimum Humidity 48    
Precipitation  
Precipitation 0.00 in 0.14 in 1.41 in (1957)
Month to date precipitation 2.79 1.02  
Year to date precipitation 12.06 11.54  
Sea Level Pressure  
Sea Level Pressure 30.20 in    
Wind  
Wind Speed 6 mph (South)    
Max Wind Speed 14 mph    
Max Gust Speed 19 mph    
Visibility 10 miles    
Events      
T = Trace of Precipitation, MM = Missing Value Source: NWS Daily Summary

Daily Weather History Graph

Daily Weather History Graph

Search for Another Location

Airport or City:

Trip Planner

Search our weather history database for the weather conditions in past years. The results will help you decide how hot, cold, wet, or windy it might be!

Date:

Astronomy

Mar. 07, 2014 Rise Set
Actual Time 6:38 AM PST 6:07 PM PST
Civil Twilight 6:09 AM PST 6:37 PM PST
Nautical Twilight 5:35 AM PST 7:10 PM PST
Astronomical Twilight 5:01 AM PST 7:45 PM PST
Moon 10:20 AM PST (3/7) 12:33 AM PST (3/7)
Length of Visible Light 12h 27m
Length of Day
11h 28m
Waxing Crescent, 43% of the Moon is Illuminated
Mar 7
Waxing Crescent
Mar 8
First Quarter
Mar 16
Full
Mar 23
Last Quarter
Mar 30
New

Hourly Weather History & Observations

Time (PST) Temp. Windchill Dew Point Humidity Pressure Visibility Wind Dir Wind Speed Gust Speed Precip Events Conditions
12:56 AM 48.9 °F - 45.0 °F 86% 30.21 in 10.0 mi South 9.2 mph - N/A   Scattered Clouds
1:04 AM 48.9 °F - 45.0 °F 86% 30.20 in 10.0 mi South 6.9 mph - N/A   Mostly Cloudy
1:13 AM 50.0 °F - 46.0 °F 86% 30.21 in 10.0 mi South 9.2 mph - N/A   Mostly Cloudy
1:41 AM 50.0 °F - 46.0 °F 86% 30.22 in 10.0 mi South 8.1 mph - N/A   Mostly Cloudy
1:51 AM 50.0 °F - 46.4 °F 87% 30.21 in 10.0 mi South 10.4 mph - N/A   Overcast
1:56 AM 50.0 °F - 46.0 °F 86% 30.22 in 10.0 mi South 9.2 mph - N/A   Overcast
2:56 AM 50.0 °F - 46.0 °F 86% 30.22 in 10.0 mi South 8.1 mph - N/A   Overcast
3:56 AM 48.9 °F - 45.0 °F 86% 30.22 in 10.0 mi South 10.4 mph - N/A   Mostly Cloudy
4:56 AM 48.9 °F - 46.0 °F 90% 30.23 in 10.0 mi South 8.1 mph - N/A   Overcast
5:56 AM 50.0 °F - 45.0 °F 83% 30.25 in 10.0 mi South 8.1 mph - N/A   Overcast
6:56 AM 50.0 °F - 44.1 °F 80% 30.26 in 10.0 mi South 9.2 mph - N/A   Overcast
7:56 AM 51.1 °F - 45.0 °F 80% 30.28 in 10.0 mi South 8.1 mph - N/A   Mostly Cloudy
8:56 AM 54.0 °F - 46.0 °F 75% 30.29 in 10.0 mi SSE 9.2 mph - N/A   Clear
12:56 PM 60.1 °F - 45.0 °F 57% 30.25 in 10.0 mi Variable 5.8 mph - N/A   Partly Cloudy
1:56 PM 61.0 °F - 43.0 °F 52% 30.22 in 10.0 mi SSW 6.9 mph - N/A   Mostly Cloudy
2:56 PM 61.0 °F - 43.0 °F 52% 30.19 in 10.0 mi East 5.8 mph - N/A   Partly Cloudy
3:56 PM 62.1 °F - 42.1 °F 48% 30.18 in 10.0 mi Calm Calm - N/A   Clear
4:56 PM 62.1 °F - 42.1 °F 48% 30.18 in 10.0 mi WSW 5.8 mph - N/A   Clear
5:56 PM 59.0 °F - 42.1 °F 53% 30.18 in 10.0 mi WNW 4.6 mph - N/A   Clear
6:56 PM 53.1 °F - 44.1 °F 71% 30.18 in 10.0 mi Calm Calm - N/A   Clear
7:56 PM 50.0 °F - 43.0 °F 77% 30.17 in 10.0 mi WSW 5.8 mph - N/A   Clear
8:56 PM 48.0 °F - 43.0 °F 83% 30.16 in 10.0 mi SSW 3.5 mph - N/A   Clear
9:56 PM 45.0 °F 43.5 °F 41.0 °F 86% 30.16 in 10.0 mi WSW 3.5 mph - N/A   Clear
10:56 PM 44.1 °F - 41.0 °F 89% 30.14 in 10.0 mi Calm Calm - N/A   Clear
11:56 PM 43.0 °F - 41.0 °F 93% 30.11 in 10.0 mi Calm Calm - N/A   Clear